Time,TemperatureF,DewpointF,PressureIn,WindDirection,WindDirectionDegrees,WindSpeedMPH,WindSpeedGustMPH,Humidity,HourlyPrecipIn,Conditions,Clouds,dailyrainin,SoftwareType,DateUTC
2013-06-17 00:02:00,63.0,60.0,29.84,SW,233,5.0,7.0,91,0.00,,,0.19,,2013-06-17 04:02:00,
2013-06-17 00:12:00,63.0,60.0,29.84,SW,231,4.0,9.0,91,0.00,,,0.19,,2013-06-17 04:12:00,
2013-06-17 00:22:00,63.0,60.0,29.84,SW,223,3.0,6.0,91,0.00,,,0.19,,2013-06-17 04:22:00,
2013-06-17 00:34:00,63.0,61.0,29.85,SW,236,5.0,6.0,92,0.00,,,0.19,,2013-06-17 04:34:00,
2013-06-17 00:43:00,63.0,61.0,29.84,SW,235,6.0,8.0,92,0.00,,,0.19,,2013-06-17 04:43:00,
2013-06-17 00:53:00,63.0,61.0,29.84,SSW,203,4.0,9.0,92,0.00,,,0.19,,2013-06-17 04:53:00,
2013-06-17 01:02:00,63.0,61.0,29.84,SSW,204,4.0,7.0,92,0.00,,,0.19,,2013-06-17 05:02:00,
2013-06-17 01:12:00,63.0,61.0,29.83,SSW,210,3.0,6.0,92,0.00,,,0.19,,2013-06-17 05:12:00,
2013-06-17 01:22:00,63.0,61.0,29.83,SW,221,4.0,7.0,92,0.00,,,0.19,,2013-06-17 05:22:00,
2013-06-17 01:33:00,63.0,61.0,29.83,SW,219,6.0,8.0,92,0.00,,,0.19,,2013-06-17 05:33:00,
2013-06-17 01:44:00,63.0,61.0,29.83,WSW,239,6.0,8.0,92,0.00,,,0.19,,2013-06-17 05:44:00,
2013-06-17 01:53:00,63.0,61.0,29.83,SSW,193,6.0,9.0,92,0.00,,,0.19,,2013-06-17 05:53:00,
2013-06-17 02:02:00,63.0,61.0,29.84,NNE,29,4.0,8.0,92,0.00,,,0.19,,2013-06-17 06:02:00,
2013-06-17 02:12:00,63.0,61.0,29.84,SW,214,2.0,4.0,92,0.00,,,0.19,,2013-06-17 06:12:00,
2013-06-17 02:22:00,63.0,61.0,29.83,SSW,197,3.0,5.0,92,0.00,,,0.19,,2013-06-17 06:22:00,
2013-06-17 02:33:00,63.0,61.0,29.84,SSW,193,0.0,0.0,92,0.00,,,0.19,,2013-06-17 06:33:00,
2013-06-17 02:43:00,62.0,60.0,29.84,ENE,77,2.0,2.0,93,0.00,,,0.19,,2013-06-17 06:43:00,
2013-06-17 02:53:00,62.0,60.0,29.84,SE,138,1.0,2.0,94,0.00,,,0.19,,2013-06-17 06:53:00,
2013-06-17 03:02:00,62.0,60.0,29.85,SE,146,0.0,1.0,94,0.00,,,0.19,,2013-06-17 07:02:00,
2013-06-17 03:12:00,62.0,61.0,29.85,SSW,210,2.0,2.0,95,0.00,,,0.19,,2013-06-17 07:12:00,
2013-06-17 03:22:00,62.0,61.0,29.85,SW,226,1.0,3.0,95,0.00,,,0.19,,2013-06-17 07:22:00,
2013-06-17 03:33:00,61.0,59.0,29.85,WSW,255,0.0,2.0,94,0.00,,,0.19,,2013-06-17 07:33:00,
2013-06-17 03:43:00,61.0,60.0,29.85,SW,235,1.0,3.0,95,0.00,,,0.19,,2013-06-17 07:43:00,
2013-06-17 03:53:00,61.0,60.0,29.85,SW,228,2.0,4.0,95,0.00,,,0.19,,2013-06-17 07:53:00,
2013-06-17 04:02:00,61.0,60.0,29.85,SW,217,0.0,3.0,95,0.00,,,0.19,,2013-06-17 08:02:00,
2013-06-17 04:12:00,61.0,60.0,29.85,SW,224,2.0,3.0,95,0.00,,,0.19,,2013-06-17 08:12:00,
2013-06-17 04:22:00,61.0,60.0,29.85,SW,224,1.0,3.0,95,0.00,,,0.19,,2013-06-17 08:22:00,
2013-06-17 04:34:00,61.0,60.0,29.85,SW,231,3.0,6.0,95,0.00,,,0.19,,2013-06-17 08:34:00,
2013-06-17 04:43:00,61.0,60.0,29.85,SSW,211,3.0,5.0,96,0.00,,,0.19,,2013-06-17 08:43:00,
2013-06-17 04:53:00,61.0,60.0,29.84,SSW,198,1.0,5.0,96,0.00,,,0.19,,2013-06-17 08:53:00,
2013-06-17 05:02:00,61.0,60.0,29.84,South,181,2.0,5.0,96,0.00,,,0.19,,2013-06-17 09:02:00,
2013-06-17 05:12:00,61.0,60.0,29.84,SSW,211,3.0,6.0,96,0.00,,,0.19,,2013-06-17 09:12:00,
2013-06-17 05:22:00,61.0,60.0,29.85,SW,236,4.0,8.0,96,0.00,,,0.19,,2013-06-17 09:22:00,
2013-06-17 05:34:00,61.0,60.0,29.85,SW,231,5.0,6.0,96,0.00,,,0.19,,2013-06-17 09:34:00,
2013-06-17 05:44:00,61.0,60.0,29.85,SW,226,5.0,7.0,96,0.00,,,0.19,,2013-06-17 09:44:00,
2013-06-17 05:52:00,61.0,60.0,29.85,SSW,202,6.0,8.0,96,0.00,,,0.19,,2013-06-17 09:52:00,
2013-06-17 06:02:00,61.0,60.0,29.86,SW,221,4.0,7.0,96,0.00,,,0.19,,2013-06-17 10:02:00,
2013-06-17 06:12:00,61.0,60.0,29.86,WSW,240,3.0,6.0,96,0.00,,,0.19,,2013-06-17 10:12:00,
2013-06-17 06:22:00,61.0,60.0,29.86,SW,233,4.0,6.0,96,0.00,,,0.19,,2013-06-17 10:22:00,
2013-06-17 06:33:00,61.0,60.0,29.86,SSW,210,4.0,6.0,95,0.00,,,0.19,,2013-06-17 10:33:00,
2013-06-17 06:43:00,61.0,60.0,29.86,SW,236,5.0,7.0,95,0.00,,,0.19,,2013-06-17 10:43:00,
2013-06-17 06:53:00,61.0,60.0,29.86,WSW,240,4.0,8.0,96,0.00,,,0.19,,2013-06-17 10:53:00,
2013-06-17 07:02:00,62.0,61.0,29.87,WSW,245,5.0,8.0,95,0.00,,,0.19,,2013-06-17 11:02:00,
2013-06-17 07:12:00,62.0,61.0,29.88,SW,225,8.0,10.0,95,0.00,,,0.19,,2013-06-17 11:12:00,
2013-06-17 07:23:00,63.0,62.0,29.88,WSW,237,5.0,10.0,95,0.00,,,0.19,,2013-06-17 11:23:00,
2013-06-17 07:33:00,63.0,61.0,29.88,SW,236,9.0,12.0,94,0.00,,,0.19,,2013-06-17 11:33:00,
2013-06-17 07:43:00,63.0,61.0,29.88,WSW,242,7.0,11.0,93,0.00,,,0.19,,2013-06-17 11:43:00,
2013-06-17 07:53:00,64.0,62.0,29.88,SW,221,8.0,12.0,93,0.00,,,0.19,,2013-06-17 11:53:00,
2013-06-17 08:02:00,64.0,61.0,29.88,WSW,255,7.0,13.0,91,0.00,,,0.19,,2013-06-17 12:02:00,
2013-06-17 08:12:00,65.0,62.0,29.88,SW,229,7.0,13.0,91,0.00,,,0.19,,2013-06-17 12:12:00,
2013-06-17 08:23:00,65.0,62.0,29.88,West,267,6.0,12.0,89,0.00,,,0.19,,2013-06-17 12:23:00,
2013-06-17 08:33:00,66.0,62.0,29.88,SW,221,7.0,12.0,88,0.00,,,0.19,,2013-06-17 12:33:00,
2013-06-17 08:43:00,66.0,62.0,29.88,SW,229,8.0,15.0,86,0.00,,,0.19,,2013-06-17 12:43:00,
2013-06-17 08:53:00,67.0,62.0,29.88,WSW,249,8.0,14.0,85,0.00,,,0.19,,2013-06-17 12:53:00,
2013-06-17 09:02:00,67.0,62.0,29.88,SW,215,10.0,14.0,84,0.00,,,0.19,,2013-06-17 13:02:00,
2013-06-17 09:12:00,68.0,62.0,29.87,SW,228,8.0,11.0,81,0.00,,,0.19,,2013-06-17 13:12:00,
2013-06-17 09:22:00,68.0,61.0,29.87,SW,223,9.0,14.0,79,0.00,,,0.16,,2013-06-17 13:22:00,
2013-06-17 09:32:00,69.0,62.0,29.87,SW,221,8.0,14.0,78,0.00,,,0.16,,2013-06-17 13:32:00,
2013-06-17 09:43:00,69.0,62.0,29.87,SW,235,7.0,14.0,78,0.00,,,0.16,,2013-06-17 13:43:00,
2013-06-17 09:52:00,69.0,62.0,29.86,WSW,245,7.0,14.0,78,0.00,,,0.16,,2013-06-17 13:52:00,
2013-06-17 10:02:00,70.0,62.0,29.88,WNW,288,8.0,12.0,76,0.00,,,0.16,,2013-06-17 14:02:00,
2013-06-17 10:12:00,70.0,61.0,29.87,WSW,245,13.0,16.0,74,0.00,,,0.16,,2013-06-17 14:12:00,
2013-06-17 10:22:00,70.0,62.0,29.87,WSW,252,10.0,18.0,76,0.00,,,0.16,,2013-06-17 14:22:00,
2013-06-17 10:34:00,71.0,62.0,29.87,WSW,254,11.0,17.0,74,0.00,,,0.06,,2013-06-17 14:34:00,
2013-06-17 10:43:00,70.0,62.0,29.88,West,266,7.0,17.0,76,0.00,,,0.06,,2013-06-17 14:43:00,
2013-06-17 10:53:00,70.0,62.0,29.87,West,270,7.0,15.0,76,0.00,,,0.06,,2013-06-17 14:53:00,
2013-06-17 11:02:00,71.0,62.0,29.88,WSW,252,7.0,12.0,74,0.00,,,0.06,,2013-06-17 15:02:00,
2013-06-17 11:12:00,72.0,63.0,29.88,WSW,246,9.0,15.0,73,0.00,,,0.06,,2013-06-17 15:12:00,
2013-06-17 11:22:00,72.0,63.0,29.88,West,262,6.0,11.0,73,0.00,,,0.02,,2013-06-17 15:22:00,
2013-06-17 11:33:00,72.0,62.0,29.89,SW,224,10.0,14.0,72,0.00,,,0.02,,2013-06-17 15:33:00,
2013-06-17 11:43:00,72.0,62.0,29.89,WSW,239,11.0,16.0,72,0.00,,,0.02,,2013-06-17 15:43:00,
2013-06-17 11:52:00,73.0,64.0,29.89,WSW,245,6.0,16.0,74,0.00,,,0.02,,2013-06-17 15:52:00,
2013-06-17 12:02:00,73.0,64.0,29.89,WSW,243,9.0,18.0,73,0.00,,,0.02,,2013-06-17 16:02:00,
2013-06-17 12:12:00,74.0,64.0,29.89,WSW,243,10.0,15.0,71,0.00,,,0.02,,2013-06-17 16:12:00,
2013-06-17 12:22:00,74.0,64.0,29.89,SW,232,8.0,16.0,71,0.00,,,0.01,,2013-06-17 16:22:00,
2013-06-17 12:33:00,74.0,63.0,29.89,NNW,347,10.0,16.0,69,0.00,,,0.01,,2013-06-17 16:33:00,
2013-06-17 12:43:00,75.0,63.0,29.89,West,264,11.0,16.0,66,0.00,,,0.01,,2013-06-17 16:43:00,
2013-06-17 12:53:00,76.0,64.0,29.90,WSW,250,6.0,18.0,66,0.00,,,0.01,,2013-06-17 16:53:00,
2013-06-17 13:02:00,76.0,62.0,29.90,NW,316,8.0,14.0,62,0.00,,,0.01,,2013-06-17 17:02:00,
2013-06-17 13:12:00,75.0,62.0,29.90,West,269,11.0,16.0,63,0.00,,,0.01,,2013-06-17 17:12:00,
2013-06-17 13:22:00,75.0,64.0,29.89,NW,326,5.0,12.0,68,0.00,,,0.00,,2013-06-17 17:22:00,
2013-06-17 13:33:00,75.0,63.0,29.90,WNW,291,5.0,12.0,66,0.00,,,0.00,,2013-06-17 17:33:00,
2013-06-17 13:43:00,75.0,63.0,29.89,SW,233,5.0,12.0,67,0.00,,,0.00,,2013-06-17 17:43:00,
2013-06-17 13:52:00,75.0,62.0,29.89,WNW,295,3.0,9.0,65,0.00,,,0.00,,2013-06-17 17:52:00,
2013-06-17 14:02:00,76.0,60.0,29.89,WNW,285,10.0,21.0,58,0.00,,,0.00,,2013-06-17 18:02:00,
2013-06-17 14:12:00,76.0,60.0,29.89,West,273,10.0,17.0,57,0.00,,,0.00,,2013-06-17 18:12:00,
2013-06-17 14:23:00,76.0,60.0,29.89,WNW,288,7.0,15.0,57,0.00,,,0.00,,2013-06-17 18:23:00,
2013-06-17 14:33:00,76.0,59.0,29.89,WNW,290,8.0,18.0,55,0.00,,,0.00,,2013-06-17 18:33:00,
2013-06-17 14:43:00,77.0,61.0,29.89,West,260,7.0,15.0,58,0.00,,,0.00,,2013-06-17 18:43:00,
2013-06-17 14:53:00,77.0,62.0,29.89,WNW,290,8.0,18.0,60,0.00,,,0.00,,2013-06-17 18:53:00,
2013-06-17 15:02:00,77.0,62.0,29.89,NW,312,8.0,19.0,59,0.00,,,0.00,,2013-06-17 19:02:00,
2013-06-17 15:12:00,77.0,58.0,29.89,NW,314,11.0,26.0,52,0.00,,,0.00,,2013-06-17 19:12:00,
2013-06-17 15:22:00,77.0,58.0,29.89,WNW,285,13.0,23.0,52,0.00,,,0.00,,2013-06-17 19:22:00,
2013-06-17 15:33:00,77.0,59.0,29.89,WNW,293,10.0,21.0,53,0.00,,,0.00,,2013-06-17 19:33:00,
2013-06-17 15:43:00,76.0,59.0,29.89,WNW,298,12.0,22.0,55,0.00,,,0.00,,2013-06-17 19:43:00,
2013-06-17 15:53:00,76.0,59.0,29.89,WNW,293,10.0,17.0,55,0.00,,,0.00,,2013-06-17 19:53:00,
2013-06-17 16:02:00,76.0,60.0,29.89,NNW,336,10.0,20.0,57,0.00,,,0.00,,2013-06-17 20:02:00,
2013-06-17 16:11:00,76.0,58.0,29.89,NW,316,8.0,16.0,53,0.00,,,0.00,,2013-06-17 20:11:00,
2013-06-17 16:22:00,76.0,59.0,29.89,WNW,303,9.0,17.0,56,0.00,,,0.00,,2013-06-17 20:22:00,
2013-06-17 16:34:00,76.0,60.0,29.89,WNW,300,10.0,17.0,58,0.00,,,0.00,,2013-06-17 20:34:00,
2013-06-17 16:43:00,76.0,60.0,29.89,NW,316,6.0,19.0,57,0.00,,,0.00,,2013-06-17 20:43:00,
2013-06-17 16:52:00,76.0,59.0,29.89,WNW,288,11.0,16.0,55,0.00,,,0.00,,2013-06-17 20:52:00,
2013-06-17 17:02:00,76.0,60.0,29.89,West,262,8.0,16.0,57,0.00,,,0.00,,2013-06-17 21:02:00,
2013-06-17 17:12:00,76.0,59.0,29.89,NNW,330,8.0,14.0,56,0.00,,,0.00,,2013-06-17 21:12:00,
2013-06-17 17:22:00,76.0,59.0,29.90,NNW,332,10.0,15.0,56,0.00,,,0.00,,2013-06-17 21:22:00,
2013-06-17 17:33:00,76.0,59.0,29.90,NW,309,6.0,15.0,55,0.00,,,0.00,,2013-06-17 21:33:00,
2013-06-17 17:43:00,76.0,60.0,29.90,NNW,345,7.0,13.0,57,0.00,,,0.00,,2013-06-17 21:43:00,
2013-06-17 17:52:00,76.0,60.0,29.90,NNW,345,7.0,13.0,57,0.00,,,0.00,,2013-06-17 21:52:00,
2013-06-17 18:01:00,76.0,59.0,29.90,NW,319,7.0,10.0,55,0.00,,,0.00,,2013-06-17 22:01:00,
2013-06-17 18:11:00,77.0,61.0,29.89,WNW,293,4.0,12.0,58,0.00,,,0.00,,2013-06-17 22:11:00,
2013-06-17 18:22:00,77.0,60.0,29.89,NNE,29,3.0,8.0,56,0.00,,,0.00,,2013-06-17 22:22:00,
2013-06-17 18:34:00,77.0,60.0,29.89,WNW,283,6.0,9.0,55,0.00,,,0.00,,2013-06-17 22:34:00,
2013-06-17 18:43:00,77.0,60.0,29.89,NW,312,4.0,9.0,56,0.00,,,0.00,,2013-06-17 22:43:00,
2013-06-17 18:53:00,76.0,59.0,29.89,North,11,6.0,10.0,56,0.00,,,0.00,,2013-06-17 22:53:00,
2013-06-17 19:02:00,76.0,60.0,29.89,NNW,339,5.0,9.0,58,0.00,,,0.00,,2013-06-17 23:02:00,
2013-06-17 19:11:00,75.0,59.0,29.90,NW,318,6.0,10.0,58,0.00,,,0.00,,2013-06-17 23:11:00,
2013-06-17 19:22:00,75.0,59.0,29.90,North,8,4.0,9.0,58,0.00,,,0.00,,2013-06-17 23:22:00,
2013-06-17 19:33:00,74.0,60.0,29.90,North,349,7.0,10.0,62,0.00,,,0.00,,2013-06-17 23:33:00,
2013-06-17 19:43:00,73.0,60.0,29.90,NNE,26,8.0,9.0,64,0.00,,,0.00,,2013-06-17 23:43:00,
2013-06-17 19:53:00,72.0,60.0,29.90,NNE,33,6.0,9.0,65,0.00,,,0.00,,2013-06-17 23:53:00,
2013-06-17 20:01:00,71.0,59.0,29.90,NNE,18,7.0,10.0,66,0.00,,,0.00,,2013-06-18 00:01:00,
2013-06-17 20:12:00,71.0,59.0,29.91,NNE,26,6.0,10.0,66,0.00,,,0.00,,2013-06-18 00:12:00,
2013-06-17 20:22:00,70.0,58.0,29.90,NNE,20,6.0,9.0,66,0.00,,,0.00,,2013-06-18 00:22:00,
2013-06-17 20:33:00,70.0,59.0,29.91,NNE,31,3.0,8.0,68,0.00,,,0.00,,2013-06-18 00:33:00,
2013-06-17 20:43:00,69.0,58.0,29.91,NNE,14,4.0,6.0,69,0.00,,,0.00,,2013-06-18 00:43:00,
2013-06-17 20:52:00,69.0,59.0,29.91,NNE,16,5.0,6.0,70,0.00,,,0.00,,2013-06-18 00:52:00,
2013-06-17 21:01:00,69.0,59.0,29.92,NNE,23,5.0,7.0,71,0.00,,,0.00,,2013-06-18 01:01:00,
2013-06-17 21:12:00,68.0,58.0,29.92,NNE,13,5.0,8.0,71,0.00,,,0.00,,2013-06-18 01:12:00,
2013-06-17 21:23:00,68.0,58.0,29.92,NNE,32,4.0,8.0,71,0.00,,,0.00,,2013-06-18 01:23:00,
2013-06-17 21:34:00,67.0,57.0,29.92,NNE,25,3.0,5.0,71,0.00,,,0.00,,2013-06-18 01:34:00,
2013-06-17 21:44:00,67.0,58.0,29.93,NE,39,2.0,3.0,72,0.00,,,0.00,,2013-06-18 01:44:00,
2013-06-17 21:53:00,67.0,58.0,29.93,NE,48,2.0,3.0,73,0.00,,,0.00,,2013-06-18 01:53:00,
2013-06-17 22:02:00,67.0,58.0,29.93,NE,41,2.0,3.0,74,0.00,,,0.00,,2013-06-18 02:02:00,
2013-06-17 22:12:00,67.0,58.0,29.94,NE,50,3.0,4.0,74,0.00,,,0.00,,2013-06-18 02:12:00,
2013-06-17 22:22:00,66.0,57.0,29.94,NE,40,5.0,7.0,72,0.00,,,0.00,,2013-06-18 02:22:00,
2013-06-17 22:34:00,66.0,57.0,29.94,NNE,29,3.0,7.0,72,0.00,,,0.00,,2013-06-18 02:34:00,
2013-06-17 22:43:00,65.0,56.0,29.95,NE,39,4.0,5.0,74,0.00,,,0.00,,2013-06-18 02:43:00,
2013-06-17 22:53:00,65.0,56.0,29.95,NE,41,4.0,6.0,74,0.00,,,0.00,,2013-06-18 02:53:00,
2013-06-17 23:02:00,65.0,57.0,29.94,ENE,59,3.0,6.0,75,0.00,,,0.00,,2013-06-18 03:02:00,
2013-06-17 23:12:00,65.0,56.0,29.94,NE,34,3.0,5.0,74,0.00,,,0.00,,2013-06-18 03:12:00,
2013-06-17 23:23:00,64.0,56.0,29.94,NE,39,3.0,5.0,75,0.00,,,0.00,,2013-06-18 03:23:00,
2013-06-17 23:34:00,64.0,56.0,29.94,NE,44,2.0,5.0,75,0.00,,,0.00,,2013-06-18 03:34:00,
2013-06-17 23:43:00,64.0,56.0,29.94,NNE,33,2.0,3.0,75,0.00,,,0.00,,2013-06-18 03:43:00,
2013-06-17 23:53:00,64.0,56.0,29.94,NNE,25,3.0,4.0,76,0.00,,,0.00,,2013-06-18 03:53:00,